Location: ???????
(55.4362°N, 38.1183°E)
Time: 18:39:21
(UTC+00:00)

Cosmos 2278 Rocket - Pass Details

Date: 25 October 2021
Orbit: 841 x 845 km, 71.0° (Epoch: 28 November)

Event Time Altitude Azimuth Distance (km) Brightness Sun altitude
Rises 15:46:21 0° 323° (NW) 3,419 5.9 -15.0°
Reaches altitude 10° 15:49:02 10° 332° (NNW) 2,480 5.0 -15.4°
Maximum altitude 15:54:15 36° 39° (NE) 1,326 2.9 -16.2°
Enters shadow 15:56:32 26° 82° (E) 1,614 3.1 -16.5°
